This is the latest recevied weather packets stored in our database for station/object 5B4ALR-13. If no packets are shown the sender has not sent any weather packets the latest 10 day(s).
| Time | Temp. | Humidity | Pressure | Rain* | Wind** | Luminosity | Snow |
|---|---|---|---|---|---|---|---|
| 1778394670 | 26.67° C | 41% | 1016.4 hPa | 0 mm | - | - | - |
| 1778394070 | 26.67° C | 42% | 1016.4 hPa | 0 mm | - | - | - |
| 1778393470 | 25.56° C | 53% | 1016.5 hPa | 0 mm | - | - | - |
| 1778392870 | 26.67° C | 51% | 1016.6 hPa | 0 mm | - | - | - |
| 1778392270 | 27.22° C | 49% | 1016.5 hPa | 0 mm | - | - | - |
| 1778391670 | 26.11° C | 46% | 1016.5 hPa | 0 mm | - | - | - |
| 1778391070 | 25.56° C | 47% | 1016.5 hPa | 0 mm | - | - | - |
| 1778390470 | 25.56° C | 47% | 1016.6 hPa | 0 mm | - | - | - |
| 1778389871 | 24.44° C | 49% | 1016.5 hPa | 0 mm | - | - | - |
| 1778389270 | 23.33° C | 52% | 1016.5 hPa | 0 mm | - | - | - |
| 1778388670 | 23.33° C | 51% | 1016.4 hPa | 0 mm | - | - | - |
| 1778388070 | 22.78° C | 50% | 1016.4 hPa | 0 mm | - | - | - |
| 1778387470 | 23.33° C | 46% | 1016.3 hPa | 0 mm | - | - | - |
| 1778386870 | 23.33° C | 42% | 1016.2 hPa | 0 mm | - | - | - |
| 1778386270 | 22.22° C | 42% | 1016.1 hPa | 0 mm | - | - | - |
| 1778385670 | 22.22° C | 41% | 1016.1 hPa | 0 mm | - | - | - |
| 1778385070 | 22.22° C | 37% | 1015.8 hPa | 0 mm | - | - | - |
| 1778384470 | 21.67° C | 32% | 1015.8 hPa | 0 mm | - | - | - |
| 1778383870 | 21.11° C | 32% | 1015.8 hPa | 0 mm | - | - | - |
| 1778383270 | 20.56° C | 33% | 1015.7 hPa | 0 mm | - | - | - |
| 1778382670 | 20.56° C | 31% | 1015.6 hPa | 0 mm | - | - | - |
| 1778382070 | 20.56° C | 31% | 1015.5 hPa | 0 mm | - | - | - |
| 1778381470 | 20.56° C | 31% | 1015.4 hPa | 0 mm | - | - | - |
| 1778380870 | 20.56° C | 31% | 1015.3 hPa | 0 mm | - | - | - |
| 1778380270 | 21.11° C | 30% | 1015.2 hPa | 0 mm | - | - | - |
* Rain latest hour (hover to see other rain measurements)
** Current wind speed in m/s (hover to see current wind gust speed)